Location: Goll?ig?dem
(16.6773°N, 80.7332°E)
Time: 06:04:31
(UTC+00:00)

Cosmos 2297 Rocket - Pass Details

Date: 21 April 2021
Orbit: 838 x 844 km, 71.0° (Epoch: 05 May)

Event Time Altitude Azimuth Distance (km) Brightness Sun altitude
Rises 13:58:07 0° 183° (S) 3,377 5.2 -15.6°
Reaches altitude 10° 14:00:37 10° 178° (S) 2,444 4.4 -16.2°
Maximum altitude 14:05:59 48° 104° (ESE) 1,084 2.3 -17.4°
Drops below altitude 10° 14:11:22 10° 31° (NNE) 2,451 4.5 -18.6°
Sets 14:13:53 0° 26° (NNE) 3,387 5.3 -19.2°
